Location: Pinawa
(50.1500°N, 95.8830°W)
Time: 00:16:27
(UTC-05:00)

Daily predictions for brighter satellites

Satellite Brightness Start Highest point End
(mag) Time Altitude Azimuth Time Altitude Azimuth Time Altitude Azimuth
Cosmos 1842 3.5 00:07:51 28° SSW 00:09:49 67° W 00:13:45 10° N
Cosmos 1707 4.2 00:09:04 22° ESE 00:09:55 24° E 00:13:08 10° NE
COSMOS 2487 4.4 00:14:10 17° E 00:14:10 17° E 00:16:29 10° ENE
Cosmos 676 Rocket 4.0 00:11:44 22° SSW 00:15:19 89° ESE 00:20:41 10° NNE
Lacrosse 5 3.4 00:16:59 10° WNW 00:21:43 38° N 00:26:27 10° ENE
Meteor 2-5 Rocket 4.2 00:22:18 28° SSE 00:25:03 49° E 00:30:37 10° NNE
Cosmos 1943 3.8 00:22:05 10° SW 00:27:39 55° NW 00:33:17 10° NNE
Cosmos 1140 Rocket 3.5 00:29:48 32° S 00:32:13 66° ESE 00:37:26 10° NNE
Helios 1A Rocket 4.1 00:29:50 10° NE 00:33:21 27° E 00:34:08 26° ESE
Terra 3.8 00:30:52 11° SW 00:33:52 19° W 00:37:16 10° NW
BREEZE-M DEB (TANK) 4.5 00:36:20 15° E 00:36:20 15° E 00:37:03 10° E
Cosmos 1544 3.2 00:31:22 10° NNW 00:35:07 66° W 00:36:06 44° SSW
Cosmos 1689 Rocket 2.5 00:35:20 50° ESE 00:35:50 59° ENE 00:39:00 10° N
Okean 3 Rocket 3.7 00:36:09 39° SSE 00:37:35 60° E 00:41:57 10° NNE
SL-27 R/B 2.3 00:37:27 53° SSW 00:38:08 84° WNW 00:41:31 10° NNE
Cosmos 1943 Rocket 2.8 00:34:58 10° NW 00:40:10 42° WSW 00:42:31 28° SSW
Cosmos 2221 2.7 00:36:17 10° N 00:40:37 63° ENE 00:42:07 38° SE
Aureole 2 4.0 00:37:46 10° NNW 00:40:59 71° WSW 00:41:08 69° SW
Cosmos 2084 3.7 00:39:58 10° NW 00:43:57 48° SW 00:44:50 41° SSW
SL-8 R/B 3.7 00:40:58 10° W 00:45:45 61° SSW 00:48:32 24° ESE
H-2A R/B 2.3 00:42:09 10° NNE 00:46:01 63° ESE 00:46:53 47° SSE
Cosmos 1733 3.1 00:43:06 10° N 00:47:01 85° W 00:48:00 49° S
Cosmos 1076 Rocket 4.4 00:47:50 30° SE 00:48:58 35° E 00:52:51 10° NNE
Cosmos 2208 Rocket 4.4 00:44:32 10° NNW 00:49:32 50° WSW 00:51:34 32° SSW
Landsat 5 3.2 00:49:20 46° SSE 00:50:27 85° ENE 00:54:28 10° NNW
Cosmos 1953 4.2 00:48:08 10° NW 00:51:14 22° W 00:52:49 17° WSW
COSMOS 2455 4.2 00:46:04 10° WSW 00:51:39 38° NW 00:57:16 10° NNE
CZ-4C R/B 3.2 00:52:33 45° WSW 00:52:53 47° W 00:56:03 10° NNW
Cosmos 1607 4.3 00:50:19 31° S 00:52:54 48° ESE 00:58:50 10° NE
Cosmos 1470 3.1 00:50:25 10° NNW 00:54:14 53° W 00:55:14 40° SW
Cosmos 1417 Rocket 4.4 00:50:55 10° N 00:57:06 82° E 01:00:14 31° SSE
CZ-4B R/B 1.6 00:57:41 51° SSW 00:58:23 67° WSW 01:02:05 10° NNW
Lacrosse 5 rocket 3.3 00:56:13 10° WNW 00:59:58 32° N 01:03:54 10° ENE
ALOS 2 2.7 00:58:33 40° SSW 00:59:59 65° WSW 01:04:23 10° NNW
Cosmos 1656 Rocket 3.9 00:55:51 10° NW 01:01:27 57° WSW 01:03:47 33° S
NOSS 3-2 (A) 4.4 01:00:44 27° SE 01:02:40 32° ESE 01:08:25 10° NE
ATLAS 3B R/B 3.2 00:55:02 10° SW 01:02:42 70° NW 01:10:07 10° NE
Cosmos 1553 Rocket 4.1 00:56:42 10° N 01:03:00 71° ENE 01:06:27 29° SSE
Cosmos 1378 4.1 01:05:30 32° ESE 01:06:12 35° E 01:09:41 10° NNE
Lacrosse 4 Rocket 2.6 01:03:16 13° WSW 01:06:34 38° NW 01:10:28 10° NNE
Cosmos 2369 Rocket 4.4 01:05:31 10° WNW 01:07:03 11° W 01:08:34 10° WSW
Cosmos 614 Rocket 3.9 01:05:50 34° SSW 01:08:07 83° ESE 01:13:23 10° NNE
CZ-2C R/B 4.2 01:04:29 18° SE 01:08:11 40° ENE 01:13:28 10° N
Cosmos 2369 4.2 01:03:11 10° NNW 01:08:46 57° NE 01:12:42 19° SE
CZ-2C R/B 3.6 01:04:31 10° NNE 01:09:43 38° E 01:12:01 26° SE
Cosmos 1763 Rocket 4.5 01:05:26 10° NNW 01:10:32 43° ENE 01:14:21 17° ESE
Meteor 1-16 Rocket 4.4 01:13:19 10° NNW 01:18:47 63° W 01:21:17 33° SSW
Cosmos 1408 Rocket 3.6 01:18:31 42° S 01:19:57 76° E 01:24:28 10° NNE
Cosmos 1741 Rocket 4.2 01:19:12 27° SW 01:22:07 68° WNW 01:27:27 10° NNE
CZ-4C R/B 3.0 01:21:00 29° SSE 01:22:35 34° ESE 01:27:58 10° NE
SL-23 DEB 3.4 01:23:04 60° SSE 01:23:04 60° SSE 01:26:06 10° ENE
Cosmos 405 Rocket 3.2 01:23:06 41° SE 01:23:53 48° E 01:27:35 10° NNE
S3M 4.0 01:21:33 10° NNW 01:27:51 79° W 01:30:59 32° S
Cosmos 1655 Rocket 4.1 01:25:30 29° SSW 01:28:54 74° W 01:35:12 10° N
ISS -3.4 01:28:19 43° W 01:29:17 85° NNW 01:32:34 10° ENE
COSMOS 2406 3.5 01:26:16 22° SW 01:30:01 64° WNW 01:35:45 10° NNE
USA 238 DEB 3.7 01:26:50 19° SW 01:32:14 88° NW 01:39:21 10° NE
USA 238 3.7 01:26:58 19° SW 01:32:18 88° WNW 01:39:25 10° NE
Cosmos 2278 3.6 01:27:04 10° NNW 01:32:46 90° SW 01:35:50 28° SSE
PSLV R/B 4.4 01:31:49 32° SE 01:33:34 57° ENE 01:37:42 10° N
Cosmos 1340 3.8 01:33:15 27° WSW 01:34:34 36° WNW 01:38:07 10° N
MOS 1-B Rocket 4.5 01:29:42 24° SSE 01:34:49 84° ENE 01:41:34 10° NNW
Cosmos 2266 Rocket 4.4 01:35:05 27° SSE 01:38:30 56° E 01:44:46 10° NNE
Cosmos 1980 Rocket 3.9 01:34:08 10° NNW 01:39:08 31° NE 01:44:07 10° ESE
Cosmos 1743 Rocket 3.7 01:42:54 39° SSE 01:44:23 66° E 01:48:49 10° NNE
Cosmos 1707 4.0 01:44:19 25° WSW 01:45:46 32° WNW 01:49:21 10° N
Cosmos 841 Rocket 3.6 01:42:06 10° NNW 01:47:23 72° ENE 01:50:32 25° SE
COSMOS 2487 3.4 01:48:15 31° WSW 01:49:25 42° WNW 01:52:54 10° N
Cosmos 1151 Rocket 3.6 01:45:58 10° N 01:50:10 50° ENE 01:52:08 28° SE
Cosmos 1766 Rocket 4.1 01:56:48 32° SW 01:58:33 52° WNW 02:02:58 10° N
Cosmos 2082 Rocket 3.2 01:57:27 24° SSE 01:59:54 35° ESE 02:05:00 10° NE
Cosmos 1697 Rocket 3.2 01:55:49 10° NNW 02:01:28 60° NE 02:06:48 11° SE
Meteor 1-24 Rocket 4.3 01:59:44 26° SW 02:03:05 55° WNW 02:08:57 10° N
Cosmos 1500 Rocket 3.6 02:01:39 38° S 02:03:11 71° E 02:07:30 10° NNE
Cosmos 2228 Rocket 3.7 02:00:39 10° NNW 02:04:51 43° W 02:06:10 33° SW
Lacrosse 5 2.3 02:00:18 10° NW 02:05:21 64° NNE 02:10:23 10° ESE
NOSS 3-2 (C) 3.6 02:03:18 30° SSW 02:06:30 63° SE 02:13:13 10° NE
Cosmos 1328 Rocket 3.9 02:04:20 10° NNW 02:08:34 51° W 02:09:57 36° SW
Helios 1A Rocket 4.2 02:05:01 10° N 02:08:40 33° WNW 02:10:28 22° WSW
Cosmos 2151 4.0 02:07:23 24° SE 02:09:14 37° E 02:13:10 10° NNE
Cosmos 1818 3.8 02:07:04 10° NW 02:12:22 51° WSW 02:14:40 31° S
CENTAUR R/B 4.1 02:11:06 15° SE 02:14:14 22° ESE 02:19:09 10° ENE
Meteor 2-2 Rocket 4.2 02:09:07 10° NNW 02:14:49 77° W 02:17:55 29° S
Cosmos 1833 Rocket 3.7 02:12:53 23° SSE 02:15:37 36° ESE 02:20:43 10° NE
Cosmos 836 Rocket 4.4 02:11:21 10° NNW 02:16:35 87° WSW 02:19:42 25° SSE
Cosmos 1515 Rocket 3.9 02:12:56 10° NNW 02:17:16 53° W 02:18:48 35° SSW
Cosmos 2058 4.5 02:15:59 18° SE 02:18:11 28° E 02:21:45 10° NNE
Cosmos 1486 Rocket 4.0 02:20:47 30° SSW 02:23:24 79° WNW 02:28:38 10° NNE
Landsat 4 3.8 02:24:02 30° SSE 02:25:44 70° ENE 02:29:28 10° N
Meteor 1-21 Rocket 4.3 02:24:57 29° SSW 02:28:04 79° WNW 02:33:47 10° N
Cosmos 1674 2.7 02:28:13 39° S 02:29:29 71° E 02:33:15 10° NNE
Iridium 2 4.2 02:33:54 29° SSE 02:35:35 53° E 02:39:19 10° NNE
SL-16 R/B 3.9 02:31:27 10° NNW 02:36:36 34° NE 02:41:43 10° ESE
Cosmos 1726 3.4 02:33:39 10° N 02:37:07 36° ENE 02:39:46 15° SE
Lacrosse 5 rocket 2.6 02:35:51 10° NW 02:39:59 46° NNE 02:44:17 10° E
ASTEX 1 3.4 02:36:26 10° N 02:41:28 85° W 02:44:09 28° S
Cosmos 1656 3.8 02:40:35 10° NW 02:46:11 57° WSW 02:49:40 23° S
Lacrosse 4 Rocket 4.4 02:45:20 10° NW 02:46:29 11° NNW 02:47:38 10° N
Cosmos 371 Rocket 4.3 02:42:08 10° NNW 02:46:50 45° ENE 02:51:29 10° SE
CZ-2C R/B 3.9 02:45:33 25° SW 02:48:03 38° W 02:53:21 10° NNW
CZ-2C R/B 3.6 02:44:50 10° N 02:50:01 40° WNW 02:53:33 19° SW
Cosmos 1867 3.6 02:47:04 26° SSW 02:50:11 77° SE 02:55:42 10° NE
Cosmos 2322 Rocket 3.4 02:46:01 10° NNW 02:51:24 42° NE 02:56:43 10° ESE
Cosmos 1763 Rocket 4.4 02:47:30 10° NW 02:52:15 34° WSW 02:54:21 25° SW
NOSS 3-2 (A) 3.8 02:48:05 17° WSW 02:53:02 69° NW 02:59:58 10° NE
Cosmos 1805 Rocket 3.8 02:51:15 25° S 02:53:43 66° E 02:58:09 10° NNE
ATLAS 3B R/B 4.5 02:48:00 10° W 02:54:43 33° NNW 03:01:09 10° NE
COS B Rocket 2.0 02:54:24 10° N 02:56:48 59° W 02:56:50 59° W
IRAS Rocket 4.4 02:52:22 10° NNE 02:57:53 69° ESE 03:01:32 22° S
Genesis I 3.7 02:54:55 10° NW 02:58:39 39° WSW 02:59:50 31° SSW
Cosmos 2315 Rocket 4.5 02:52:51 10° NNW 02:58:53 47° W 03:02:39 22° SSW
SL-16 R/B 4.0 02:55:25 10° SE 03:01:04 37° ENE 03:06:44 10° N
Abrixas 4.2 03:02:39 20° SE 03:02:39 20° SE 03:04:48 10° E
USA 32 4.3 02:57:31 10° NNW 03:02:39 54° W 03:05:41 24° SSW
Cosmos 1707 Rocket 3.5 02:58:24 10° NNW 03:02:48 75° W 03:05:24 24° S
Cosmos 1908 4.4 02:59:41 10° NNW 03:02:59 27° W 03:04:05 23° WSW
Cosmos 2344 3.8 02:58:14 20° SW 03:04:06 85° SE 03:13:31 10° NE
Cosmos 1633 Rocket 3.6 03:01:18 19° SSE 03:04:16 53° E 03:08:36 10° NNE
Cosmos 540 Rocket 3.4 03:00:04 10° NNW 03:05:14 69° WSW 03:09:18 16° S
Resurs 1-4 Rocket 4.4 03:02:14 10° NE 03:05:42 17° E 03:09:08 10° SE
ISS -3.0 03:02:36 10° WNW 03:05:52 67° N 03:09:07 10° E
Cosmos 1437 Rocket 3.7 03:03:41 10° NNW 03:07:17 33° W 03:08:38 26° SW
Cosmos 1354 Rocket 4.2 03:04:06 23° SW 03:07:27 64° WNW 03:12:45 10° NNE
Cosmos 1666 Rocket 3.6 03:07:33 22° S 03:10:15 72° E 03:14:35 10° NNE
CZ-4C R/B 2.8 03:06:10 15° WSW 03:10:47 59° NW 03:17:05 10° NE
USA 215 3.4 03:08:31 10° ENE 03:15:01 63° SE 03:19:53 19° SW
Cosmos 1503 Rocket 4.4 03:12:21 21° SW 03:15:53 58° WNW 03:21:10 10° NNE
Cosmos 1745 Rocket 4.1 03:17:14 17° S 03:22:18 87° E 03:28:41 10° N
Cosmos 1980 Rocket 2.3 03:17:57 10° NW 03:23:30 59° WSW 03:29:01 10° S
Cosmos 2360 Rocket 4.1 03:18:55 10° NNW 03:23:57 32° NE 03:28:58 10° ESE
Nadezhda 1 Rocket 3.9 03:19:54 10° NNW 03:26:08 77° W 03:31:46 12° S
Cosmos 1300 3.1 03:22:34 10° NNW 03:26:16 45° W 03:28:18 23° SSW
PSLV R/B 4.1 03:22:38 10° N 03:27:12 52° WNW 03:30:11 20° SW
USA 161 1.9 03:25:49 17° SE 03:27:26 47° ENE 03:29:45 10° N
Aureole 1 Rocket 4.0 03:24:57 10° NW 03:28:50 35° WSW 03:32:05 18° SSW
ERS-2 2.2 03:28:07 10° N 03:31:50 67° WNW 03:34:07 22° SSW
Cosmos 332 Rocket 4.0 03:29:32 10° NNW 03:34:13 52° WSW 03:38:23 13° S
Cosmos 405 4.5 03:31:35 10° NW 03:34:28 23° W 03:35:43 19° WSW
SL-08 R/B 3.5 03:31:15 16° S 03:34:57 55° W 03:39:47 10° NNW
SL-23 DEB 3.6 03:32:30 10° W 03:35:39 69° N 03:39:06 10° E
Cosmos 1437 3.0 03:36:13 23° SSW 03:38:07 60° WNW 03:41:27 10° N
Okean O Rocket 4.3 03:36:41 10° ENE 03:38:51 13° E 03:41:01 10° ESE
ATLAS CENTAUR R/B 4.3 03:35:15 10° NNW 03:39:19 25° NNE 03:43:10 10° E
CZ-2D R/B 3.6 03:37:53 10° NNE 03:42:34 32° E 03:47:14 10° SSE
Cosmos 968 Rocket 3.9 03:38:35 14° S 03:42:54 57° ESE 03:47:58 10° NNE
NPP 3.7 03:38:10 10° NNE 03:43:35 74° WNW 03:48:01 15° SSW
Cosmos 2082 Rocket 2.8 03:39:17 15° SW 03:43:52 48° NW 03:49:22 10° NNE
Cosmos 1538 Rocket 4.0 03:39:39 10° NNW 03:44:48 63° WSW 03:49:58 10° S
Cosmos 1697 Rocket 3.7 03:40:23 10° NW 03:45:04 27° WSW 03:48:28 16° SSW
Cosmos 2151 4.4 03:43:59 15° WSW 03:46:40 25° WNW 03:50:14 10° NNW
UNK 4.5 03:42:34 10° SSE 03:47:02 55° ENE 03:51:31 10° N
Lacrosse 5 2.3 03:43:28 10° WNW 03:48:10 39° SW 03:52:50 10° SSE
Cosmos 923 Rocket 4.3 03:43:05 10° NNW 03:48:25 73° ENE 03:53:39 10° SSE
Sich 1 3.3 03:45:35 17° SSW 03:48:46 55° WNW 03:53:10 10° N
Cosmos 1869 3.4 03:49:25 10° N 03:53:24 76° E 03:57:22 10° SSE
Cosmos 1455 2.1 03:50:13 10° N 03:54:04 89° SSW 03:57:50 10° S
Cosmos 2058 4.0 03:52:14 15° SW 03:55:03 32° WNW 03:58:50 10° N
Cosmos 1862 Rocket 3.6 03:50:54 10° NNW 03:55:25 78° W 03:59:53 10° S
Cosmos 1680 Rocket 3.8 03:53:49 10° NNW 03:59:04 70° ENE 04:04:14 10° SSE
Cosmos 1833 Rocket 3.3 03:54:34 13° SW 03:59:26 47° NW 04:04:54 10° NNE
ADEOS 3.6 03:54:33 10° NNE 03:59:50 85° WNW 04:04:49 11° SSW
SL-14 R/B 3.9 03:58:10 16° SW 04:00:55 40° WNW 04:04:34 10° N
BREEZE-M DEB (TANK) 1.9 03:57:49 10° W 04:02:54 65° SSW 04:05:16 10° ESE
CENTAUR R/B 2.7 03:58:16 14° SW 04:03:53 89° SE 04:11:04 10° NE
CBERS-1 4.3 04:00:01 10° N 04:05:02 58° WNW 04:09:39 12° SW
USA 129 1.6 04:04:58 19° SE 04:05:37 40° ENE 04:06:51 10° N
Cosmos 1777 Rocket 4.4 04:03:52 10° S 04:09:04 61° ESE 04:14:19 10° NNE
Meteor 1-4 Rocket 2.9 04:05:35 10° NNW 04:09:12 49° W 04:12:51 10° S
Cosmos 1933 3.8 04:06:28 10° N 04:10:30 62° ENE 04:14:29 10° SSE
IRS-1D 3.9 04:05:36 10° NNE 04:10:58 67° ESE 04:16:16 10° S
Cosmos 1726 3.8 04:09:37 10° NW 04:12:16 19° W 04:14:26 12° SW
ATLAS 5 CENTAUR R/B 3.9 04:10:36 10° SSE 04:14:18 21° ESE 04:18:10 10° ENE
Cosmos 1703 3.7 04:10:57 13° SSW 04:14:22 48° WNW 04:18:14 10° N
ARIANE 5 R/B 2.6 04:09:57 10° NNE 04:15:08 79° ESE 04:20:12 10° SSW
Cosmos 773 Rocket 4.0 04:10:25 10° NNW 04:15:28 59° WSW 04:20:30 10° S
Cosmos 2181 Rocket 4.0 04:10:27 10° NNW 04:16:33 70° W 04:22:41 10° S
Meteor 2-10 4.5 04:12:23 10° NNW 04:17:16 44° W 04:22:16 10° SSW
Lacrosse 5 rocket 1.6 04:15:08 10° WNW 04:19:25 57° SW 04:23:52 10° SE
SL-16 R/B 2.3 04:15:28 10° NW 04:21:00 54° WSW 04:26:30 10° S
EO 1 Del DPAF 3.7 04:21:54 10° S 04:25:39 44° W 04:29:26 10° NNW
Cosmos 371 Rocket 4.3 04:22:57 10° NW 04:27:03 27° W 04:31:07 10° SSW
Cosmos 1271 Rocket 3.7 04:26:42 10° NNW 04:30:05 29° W 04:33:23 10° SSW
Cosmos 1346 3.5 04:32:02 10° S 04:35:04 64° E 04:38:08 10° NNE
Cosmos 2322 Rocket 2.7 04:30:14 10° NW 04:35:27 40° WSW 04:40:37 10° S
Cosmos 1626 2.4 04:32:05 10° SSW 04:35:45 52° WNW 04:39:26 10° N
MTI 4.1 04:34:43 10° S 04:38:00 49° W 04:41:18 10° NNW
Abrixas 2.8 04:35:07 10° WSW 04:38:09 54° S 04:41:10 10° E
ISS -3.2 04:39:07 10° WNW 04:42:19 53° SSW 04:45:30 10° SE
SL-16 R/B 2.8 04:38:30 10° S 04:44:33 50° W 04:50:39 10° NNW
Resurs 1-4 Rocket 2.2 04:40:51 10° NNE 04:46:12 81° WNW 04:51:31 10° SSW
